Regional Weather Roundup
Issued by NWS

Home | Current Version | Previous Version | Graphics & Text | Print | Product List | Glossary On
Versions: 1 2 3 4 5 6 7 8 9 10 11 12 13 14 15 16 17 18 19 20 21 22 23 24 25 26 27 28 29 30 31 32 33 34 35 36 37 38 39 40 41 42 43 44 45 46 47 48 49 50
000
ASUS45 KABQ 061810
RWRNM
WEATHER ROUNDUP FOR NEW MEXICO
NATIONAL WEATHER SERVICE ALBUQUERQUE NM
1200 PM MDT WED MAY 06 2015

NOTE: "FAIR" MEANS FEW OR NO CLOUDS BELOW 12,000 FEET AGL WITH NO
       SIGNIFICANT WEATHER OR OBSTRUCTIONS TO VISION.

      THIS PRODUCT IS RELEASED AS TWO VERSIONS.  ONE VERSION NEAR
      THE TOP OF THE HOUR CONTAINING PRELIMINARY DATA FROM ALBUQUERQUE
      AND OTHER STATIONS.  A FINAL VERSION WITH ADDITIONAL DATA IS
      ISSUED ABOUT 10 MINUTES AFTER THE HOUR.

NMZ501-503-504-510>518-061900-
NORTHWEST PLATEAU/NORTHCENTRAL MOUNTAINS

CITY           SKY/WX    TMP DP  RH WIND       PRES   REMARKS
FARMINGTON     PTSUNNY   62  43  49 W12       29.91S
6HR MIN TEMP:  47; 6HR MAX TEMP:  63;

LOS ALAMOS     PTSUNNY   56  38  52 W10       29.99S
SANTA FE       CLOUDY    59  40  49 SW12      29.94F
6HR MIN TEMP:  46; 6HR MAX TEMP:  61;

TAOS           PTSUNNY   54  39  58 SW10      29.96F
ANGEL FIRE     FAIR      45  39  79 W17G30    29.95R

$$
NMZ402-403-502-505>509-061900-
WESTCENTRAL MOUNTAINS/SOUTHWEST MOUNTAINS

CITY           SKY/WX    TMP DP  RH WIND       PRES   REMARKS
GALLUP         PTSUNNY   57  43  59 SW13      29.98F
6HR MIN TEMP:  46; 6HR MAX TEMP:  57;

GRANTS         PTSUNNY   59  39  46 NW13      30.00F
SILVER CITY      N/A     68  32  26 S6G21     30.01S

$$
NMZ407-409-411-412-061900-
SOUTHERN DESERTS

CITY           SKY/WX    TMP DP  RH WIND       PRES   REMARKS
LORDSBURG      FAIR      73  23  15 SW7       29.93F
DEMING         SUNNY     73  33  23 W6G18     29.94F
6HR MIN TEMP:  46; 6HR MAX TEMP:  75;

LAS CRUCES     SUNNY     72  34  24 W10G18    29.95F
HOLLOMAN AFB   SUNNY     76  33  20 W12G22    29.91F
ALAMOGORDO     SUNNY     75  32  20 W6G17     29.93F
T OR C         SUNNY     70  34  26 SW9       29.92F
6HR MIN TEMP:  54; 6HR MAX TEMP:  73;


$$
NMZ519>523-061900-
CENTRAL VALLEYS/CENTRAL HIGHLANDS

CITY           SKY/WX    TMP DP  RH WIND       PRES   REMARKS
ALBUQUERQUE    PTSUNNY   65  43  44 SW13      29.94F
6HR MIN TEMP:  52; 6HR MAX TEMP:  65;

DOUBLE EAGLE   PTSUNNY   63  43  48 W12G17    29.96S
MORIARTY ARPT  FAIR      63  40  42 W14G21    29.98S
6HR MIN TEMP:  49; 6HR MAX TEMP:  63;

CLINES CORNERS PTSUNNY   58  38  47 W20G30    29.97R
6HR MIN TEMP:  44; 6HR MAX TEMP:  60;

BELEN          FAIR      67  36  31 NW5       29.95S
6HR MIN TEMP:  49; 6HR MAX TEMP:  68;

SOCORRO        FAIR      67  40  37 E6        29.94F
6HR MIN TEMP:  50; 6HR MAX TEMP:  67;


$$
NMZ524>526-539-540-061900-
SOUTHCENTRAL MOUNTAINS

CITY           SKY/WX    TMP DP  RH WIND       PRES   REMARKS
RUIDOSO        SUNNY     63  32  31 SW8G21    30.03S

$$
NMZ527>531-061900-
NORTHEAST HIGHLANDS/NORTHEAST PLAINS

CITY           SKY/WX    TMP DP  RH WIND       PRES   REMARKS
LAS VEGAS      PTSUNNY   62  37  39 SW9G21    29.91R
6HR MIN TEMP:  45; 6HR MAX TEMP:  62;

RATON          PTSUNNY   66  36  32 SW18      29.80R
6HR MIN TEMP:  44; 6HR MAX TEMP:  68;

CLAYTON        NOT AVBL

$$
NMZ532>537-061900-
EASTCENTRAL PLAINS

CITY           SKY/WX    TMP DP  RH WIND       PRES   REMARKS
TUCUMCARI      PTSUNNY   74  47  38 W28G35    29.80R
6HR MIN TEMP:  50; 6HR MAX TEMP:  75;

CANNON AFB     NOT AVBL
CLOVIS AIRPORT MOSUNNY   72  46  40 SW21G30   29.88F

$$
NMZ028-029-538-061900-
SOUTHEAST PLAINS

CITY           SKY/WX    TMP DP  RH WIND       PRES   REMARKS
ROSWELL        SUNNY     77  40  26 SW5       29.85F
6HR MIN TEMP:  48; 6HR MAX TEMP:  78;

ARTESIA        SUNNY     79  37  22 VRB5G15   29.89F
CARLSBAD       SUNNY     80  37  21 W12       29.88F
6HR MIN TEMP:  54; 6HR MAX TEMP:  81;

HOBBS          SUNNY     75  46  35 S14       29.93F


$$



USA.gov is the U.S. government's official web portal to all federal, state and local government web resources and services.